Regional Weather Roundup
Issued by NWS Charleston, SC

Current Version | Previous Version | Graphics & Text | Print | Product List | Glossary On
Versions: 1 2 3 4 5 6 7 8 9 10 11 12 13 14 15 16 17 18 19 20 21 22 23 24 25 26 27 28 29 30 31 32 33 34 35 36 37 38 39 40 41 42 43 44 45 46 47 48 49 50
000 ASUS42 KCHS 211012 RWRCHS REGIONAL WEATHER ROUNDUP NATIONAL WEATHER SERVICE CHARLESTON SC 500 AM EST TUE FEB 21 2017 NOTE: "FAIR" INDICATES FEW OR NO CLOUDS BELOW 12,000 FEET WITH NO SIGNIFICANT WEATHER AND/OR OBSTRUCTIONS TO VISIBILITY. NOT ALL STATIONS ARE QUALITY CONTROLLED. USE DATA WITH CAUTION... ESPECIALLY DEWPOINT OBSERVATIONS. SCZ027-030-031-034>040-042>050-211100- ...SOUTHEAST SOUTH CAROLINA... CITY SKY/WX TMP DP RH WIND PRES REMARKS N CHARLESTON MOCLDY 55 53 93 NE7 30.17R FOG WATERFRONT PRK N/A 59 58 97 NE6 30.15F MOUNT PLEASANT LGT RAIN 52 52 100 CALM 30.18R JOHNS ISLAND CLOUDY 57 57 100 CALM 30.17R PINOPOLIS N/A 55 54 94 E5 30.09S MONCKS CORNER FAIR 52 50 93 E5 30.18R SUMMERVILLE FAIR 50 50 100 CALM 30.18S FOG BEAUFORT MCAS MOCLDY 56 56 100 CALM 30.16R FOG BEAUFORT ARPT CLOUDY 59 57 94 NE6 30.15S HILTON HEAD IS PTCLDY 59 59 100 NE5 30.15S WALTERBORO CLOUDY 54 52 94 CALM 30.18S FOG ALLENDALE FAIR 54 48 82 CALM 30.16R ...SOUTHERN MIDLANDS AND PEE DEE... CITY SKY/WX TMP DP RH WIND PRES REMARKS GEORGETOWN FAIR 55 52 88 NE6 30.20S KINGSTREE FAIR 50 46 87 CALM 30.20R ORANGEBURG CLOUDY 53 50 89 E6 30.19R BARNWELL FAIR 54 48 82 CALM 30.17S AIKEN FAIR 46 45 93 E5 30.20S MANNING FAIR 52 43 71 MISG 30.20R COLUMBIA CLOUDY 50 45 83 CALM 30.18S SUMTER CLOUDY 49 46 91 NE6 30.18R FLORENCE CLOUDY 48 46 93 NE6 30.22R MYRTLE BEACH NOT AVBL N MYRTLE BEACH CLOUDY 51 48 89 NE5 30.21R $$ GAZ063-065-086>088-099>101-113>116-118-119-134>141-150-211100- ...SOUTHEAST GEORGIA... CITY SKY/WX TMP DP RH WIND PRES REMARKS SAVANNAH ARPT CLOUDY 57 54 89 CALM 30.15R HUNTER AAF CLOUDY 57 57 100 CALM 30.12R FORT STEWART MOCLDY 52 50 93 CALM 30.12R STATESBORO CLOUDY 50 50 100 CALM 30.15S SYLVANIA PTSUNNY N/A N/A N/A CALM 30.16S CLAXTON FAIR N/A N/A N/A CALM 30.15S ...CSRA...CENTRAL AND FAR SOUTHEAST GEORGIA... CITY SKY/WX TMP DP RH WIND PRES REMARKS THOMSON CLOUDY 48 48 100 CALM 30.19S AUGUSTA-BUSH CLOUDY 49 46 90 CALM 30.16S FOG AUGUSTA-DANIEL MOCLDY 57 48 72 E6 30.16S SWAINSBORO FAIR 52 50 93 E3 30.15S VIDALIA CLOUDY 52 52 100 CALM 30.14S EASTMAN FAIR 54 49 84 CALM 30.15S HAZLEHURST FAIR 56 52 86 SE3 30.12S ALMA PTCLDY 49 48 97 CALM 30.12S WAYCROSS CLOUDY 54 54 100 CALM 30.13S JESUP FAIR 52 48 87 CALM 30.14S FOG BAXLEY FAIR 50 50 100 NE3 30.13S BRUNSWICK FOG 55 55 100 CALM 30.14R VSB 1/4 SAINT SIMONS CLOUDY 62 60 93 NE3 30.12R $$ SCZ027-028-034-036>038-045-046-048>050-GAZ119-141-211100- ...LAKE AND SUPPLEMENTAL COASTAL OBSERVATIONS... STATION/POSITION TIME TEMP WIND PRES WAVE SWELL AIR SEA DIR/SP/G HT/PER HT/PER/DIR (UTC) (F) (DEG/KT/KT) (MB) (FT/S) (FT/S/D) WINYAH BAY 0845 58 60/ 7 1022.0 LAKE MURRAY 0920 54 80/ 4/ 4 1021.7R ACE BASIN NERRS NOT AVBL FORT PULASKI 0942 61 60 70/ 8/ 10 1020.8S SAPELO ISLAND 0900 63 80/ 6 1020.0 $$ ANZ835-935-AMZ111-154-330-350-352-354-370-450-454-472-211100- ...C-MAN AND BUOY OBSERVATIONS... STATION/POSITION TIME TEMP WIND PRES WAVE SWELL AIR SEA DIR/SP/G HT/PER HT/PER/DIR (UTC) (F) (DEG/KT/KT) (MB) (FT/S) (FT/S/D) BUOY 41004 0950 68 66 80/ 16/ 19 1020.3S 3/ 6 BUOY 41008 0950 64 62 70/ 8/ 8 1019.7R 1/ 4 2/ 90/ 4 FOLLY BEACH CMAN 0900 60 40/ 10/ 11 1021.7S CAPERS NEARSHORE NOT AVBL FRIPP NEARSHORE 0908 61 60 50/ 8/ 10 1020.4S STATION/POSITION TIME TEMP WIND PRES WAVE SWELL AIR SEA DIR/SP/G HT/PER HT/PER/DIR (UTC) (F) (DEG/KT/KT) (MB) (FT/S) (FT/S/D) 5E ST. MARYS GA 0930 64 N/A 1/ 4 FRYING PAN BUOY 0950 66 67 60/ 16/ 19 1022.0S 5/ 6 2/ 60/11 BUOY 41025 0950 62 76 30/ 14/ 19 1022.7F 8/ 9 7/ 60/ 9 CAPE LOOKOUT NC 0900 52 20/ 10/ 12 1023.2S BUOY 41002 0950 66 71 40/ 14/ 19 1020.5R 5/ 6 2/ 50/13 BUOY 41010 NOT AVBL ST AUGUSTINE FL 1000 67 67 60/ 3/ 3 1020.3R $$

USA.gov is the U.S. government's official web portal to all federal, state and local government web resources and services.